Location: Kitchener-Waterloo
(43.4500°N, 80.5000°W)
Time: 23:33:57
(UTC-04:00)

ISS - All Passes

Search period start: 24 June 2017 00:00
Search period end: 04 July 2017 00:00
Orbit: 401 x 408 km, 51.6° (Epoch: 25 June)

Date Brightness Start Highest point End Pass type
(mag) Time Alt. Az. Time Alt. Az. Time Alt. Az.
24 Jun - 09:36:32 10° SSW 09:39:29 31° SE 09:42:26 10° ENE daylight
24 Jun - 11:12:47 10° W 11:15:54 40° NNW 11:19:03 10° NE daylight
24 Jun - 12:50:31 10° NW 12:53:01 20° N 12:55:31 10° NE daylight
24 Jun - 14:27:24 10° NW 14:30:16 26° NNE 14:33:07 10° ENE daylight
24 Jun - 16:03:43 10° WNW 16:07:01 75° SW 16:10:18 10° SE daylight
25 Jun - 08:45:12 10° S 08:47:27 17° SE 08:49:44 10° E daylight
25 Jun - 10:20:23 10° WSW 10:23:38 64° NNW 10:26:55 10° NE daylight
25 Jun - 11:57:57 10° WNW 12:00:36 22° N 12:03:14 10° NE daylight
25 Jun - 13:35:14 10° NW 13:37:52 22° N 13:40:31 10° ENE daylight
25 Jun - 15:11:32 10° NW 15:14:49 63° NNE 15:18:05 10° ESE daylight
25 Jun - 16:48:41 10° W 16:51:00 18° SW 16:53:19 10° S daylight
26 Jun - 09:28:10 10° SW 09:31:26 74° SE 09:34:43 10° ENE daylight
26 Jun - 11:05:21 10° WNW 11:08:10 26° NNW 11:11:02 10° NE daylight
26 Jun - 12:42:56 10° NW 12:45:25 19° N 12:47:56 10° NE daylight
26 Jun - 14:19:23 10° NW 14:22:32 40° NNE 14:25:40 10° E daylight
26 Jun - 15:55:59 10° WNW 15:58:58 32° SW 16:01:57 10° SSE daylight
27 Jun - 08:36:13 10° SSW 08:39:17 39° SE 08:42:23 10° ENE daylight
27 Jun - 10:12:45 10° W 10:15:49 35° NNW 10:18:52 10° NE daylight
27 Jun - 11:50:29 10° NW 11:52:58 19° N 11:55:26 10° NE daylight
27 Jun - 13:27:15 10° NW 13:30:11 28° NNE 13:33:06 10° E daylight
27 Jun - 15:03:35 10° WNW 15:06:50 60° SW 15:10:06 10° SE daylight
28 Jun - 07:44:39 10° S 07:47:13 21° SE 07:49:48 10° E daylight
28 Jun - 09:20:16 10° WSW 09:23:29 53° NNW 09:26:43 10° NE daylight
28 Jun - 10:57:56 10° WNW 11:00:29 21° N 11:03:04 10° NE daylight
28 Jun - 12:35:03 10° NW 12:37:46 23° NNE 12:40:28 10° ENE daylight
28 Jun - 14:11:20 10° NW 14:14:38 77° NNE 14:17:56 10° ESE daylight
28 Jun - 15:48:51 10° W 15:50:44 14° SW 15:52:37 10° SSW daylight
29 Jun - 06:53:56 10° SSE 06:55:12 12° SE 06:56:30 10° ESE daylight
29 Jun - 08:27:57 10° WSW 08:31:13 90° NW 08:34:31 10° ENE daylight
29 Jun - 10:05:17 10° WNW 10:08:02 24° NNW 10:10:48 10° NE daylight
29 Jun - 11:42:46 10° NW 11:45:17 20° N 11:47:49 10° ENE daylight
29 Jun - 13:19:09 10° NW 13:22:20 46° NNE 13:25:32 10° ESE daylight
29 Jun - 14:55:54 10° WNW 14:58:41 26° SW 15:01:29 10° SSE daylight
30 Jun - 07:35:51 10° SW 07:39:00 49° SE 07:42:12 10° ENE daylight
30 Jun - 09:12:38 10° W 09:15:36 31° NNW 09:18:35 10° NE daylight
30 Jun - 10:50:20 10° NW 10:52:48 19° N 10:55:15 10° NE daylight
30 Jun - 12:26:58 10° NW 12:29:59 32° NNE 12:32:58 10° E daylight
30 Jun - 14:03:22 10° WNW 14:06:34 47° SW 14:09:44 10° SE daylight
01 Jul - 06:44:04 10° SSW 06:46:52 26° SE 06:49:40 10° ENE daylight
01 Jul - 08:20:04 10° W 08:23:14 45° NNW 08:26:24 10° NE daylight
01 Jul - 09:57:46 10° NW 10:00:17 20° N 10:02:48 10° NE daylight
01 Jul - 11:34:45 10° NW 11:37:32 24° NNE 11:40:19 10° ENE daylight
01 Jul - 13:11:02 10° WNW 13:14:20 88° SW 13:17:38 10° SE daylight
01 Jul - 14:49:09 10° WSW 14:50:20 12° SW 14:51:32 10° SSW daylight
02 Jul - 05:52:53 10° SSE 05:54:47 15° SE 05:56:42 10° E daylight
02 Jul - 07:27:38 10° WSW 07:30:53 74° NNW 07:34:10 10° NE daylight
02 Jul - 09:05:05 10° WNW 09:07:46 22° NNW 09:10:28 10° NE daylight
02 Jul - 10:42:28 10° NW 10:45:02 21° N 10:47:37 10° ENE daylight
02 Jul - 12:18:47 10° NW 12:22:02 54° NNE 12:25:16 10° ESE daylight
02 Jul - 13:55:44 10° W 13:58:17 21° SW 14:00:50 10° S daylight
03 Jul - 06:35:24 10° SW 06:38:37 61° SE 06:41:52 10° ENE daylight
03 Jul - 08:12:24 10° W 08:15:17 28° NNW 08:18:12 10° NE daylight
03 Jul - 09:50:03 10° NW 09:52:30 19° N 09:54:58 10° NE daylight
03 Jul - 11:26:34 10° NW 11:29:39 35° NNE 11:32:43 10° E daylight
03 Jul - 13:03:03 10° WNW 13:06:09 38° SW 13:09:13 10° SSE daylight
